{"data":{"norad_id":53543,"epoch":"2026-05-25T02:02:54.614112Z","epoch_age_seconds":67113,"freshness":"FRESH","line1":"1 53543U 22101S   26145.08535433 -.00000171  00000+0  73604-5 0  9999","line2":"2 53543  53.2136  81.2333 0001293  74.6498 285.4637 15.08843492208521","mean_motion":15.08843492,"eccentricity":0.0001293,"inclination_deg":53.2136,"raan_deg":81.2333,"arg_perigee_deg":74.6498,"mean_anomaly_deg":285.4637,"bstar":7.3604e-6,"rev_number":20852,"period_min":95.437333801351,"perigee_km":538.83823478349,"apogee_km":540.62719589188,"semimajor_km":6917.8697153377,"source":"CELESTRAK","updated_at":"2026-05-25T13:38:17.442491Z"}}